星链-2481 (STARLINK-2481 )

导读

STARLINK-2481是美国SpaceX公司星链星座的一员,属于星链第一代低轨互联网卫星项目,于2021年4月7日由猎鹰9号火箭发射升空。它运行在近地轨道,配备氪离子推进系统与相控阵通信天线,为全球提供高速低延迟卫星互联网服务,可覆盖偏远地区,助力弥合数字鸿沟,也承担部分商业与应急通信任务,是星链大规模组网部署中的组成卫星。

Basic Information
目录编号:
48138
目录名称:
STARLINK-2481
国际标识:
2021-027AY
轨道中心:
EARTH
卫星名称:
星链-2481
卫星全名:
星链-2481 (STARLINK-2481 )
卫星状态:
在轨 (已飞行1976 天)
发射日期:
2021-04-07 UTC
国别 :
美国 (US)
星等 :
--
Orbit Information
数据来源 国际轨道数据
星历时间: 2026-09-03T02:40:15+0800
1天前
查看轨道信息
半长轴: 6848.871km
偏心率: 0.0001079
轨道倾角: 53.160°
近地点辐角 81.812°
升交点赤经 63.654°
平近点角 278.301°
近地点: 469.995km
远地点: 471.473km
周期: 94.013分钟
每日圈数: 15.317023
Detailed Information
固有亮度:
5
最大亮度:
2.5
卫星平台:
Starlink V1.0
覆盖范围:
全球
运营商:
太空探索技术公司
运营商所在国:
美国
制造商(研发单位):
太空探索技术公司
制造商所在国:
美国
使用方式:
暂无
Satellite Introduction
星链(Starlink)计划是由太空探索技术公司(SpaceX)提出的一个巨型低轨卫星互联网星座项目,计划在2019年至2024年间在太空搭建由约1.2万颗卫星组成的“星链”网络,其中1584颗将部署在地球上空550千米处的近地轨道,并从2020年开始工作。该卫星仍在工作。
2D Orbit Map
3D Orbit Map
Orbit Altitude Analysis Chart
Orbit Inclination Analysis Chart
Orbit Comprehensive Analysis Chart
View Comprehensive Chart
Conjunction Data List
Event ID Objects TCA Miss Dist (km) Collision Risk Probability Collision Risk Index (CRI) Action
CDM_260903-213804-813806-324022
2026-09-03T
21:38:23+0000
1.947 km
极远距离
2.498407E-6 低风险 0.43
CDM_260904-193404-813806-773321
2026-09-04T
19:34:03+0000
2.621 km
极远距离
1.486047E-6 低风险 0.38
CDM_260903-160604-813806-566521
2026-09-03T
16:06:19+0000
2.841 km
极远距离
1.371477E-6 低风险 0.38
CDM_260903-091504-813806-770921
2026-09-03T
09:15:02+0000
2.488 km
极远距离
1.339596E-6 低风险 0.38
CDM_260904-184304-813806-876921
2026-09-04T
18:43:55+0000
2.917 km
极远距离
1.321703E-6 低风险 0.37
CDM_260904-092404-813806-758121
2026-09-04T
09:24:04+0000
2.840 km
极远距离
1.302784E-6 低风险 0.37
CDM_260903-050504-813806-873521
2026-09-03T
05:05:17+0000
2.521 km
极远距离
1.195823E-6 低风险 0.37